Location: Dürabuch
(48.2640°N, 11.2185°E)
Time: 01:34:19
(UTC+00:00)

Okean 1-7 - Pass Details

Date: 23 May 2024
Orbit: 579 x 604 km, 82.5° (Epoch: 19 June)

Event Time Altitude Azimuth Distance (km) Brightness Sun altitude
Exits shadow 01:30:35 19° 247° (WSW) 1,442 4.5 -14.4°
Maximum altitude 01:32:37 27° 289° (WNW) 1,162 4.3 -14.2°
Drops below altitude 10° 01:36:20 10° 348° (NNW) 1,958 6.3 -13.9°
Sets 01:38:50 0° 1° (N) 2,869 7.5 -13.7°
